FW1299 Weather Reports


time (UTC)temp
C
wind
direction
speed
KPH
gust
KPH
rain 1hr
cm
rain 24hr
cm
rain mn
cm
humidity
%
barometer
mb
20260503215659 16 259 4.8 12.9 0.00 0.00 0.00 36 1011.2
20260503214657 16 224 6.4 19.3 0.00 0.00 0.00 40 1011.3
20260503213657 16 103 3.2 17.7 0.00 0.00 0.00 36 1011.1
20260503212656 16 207 3.2 12.9 0.00 0.00 0.00 40 1011.2
20260503210656 16 250 6.4 19.3 0.00 0.00 0.00 38 1011.3
20260503205655 16 287 4.8 16.1 0.00 0.00 0.00 37 1011.3
20260503204655 15 324 8.0 25.7 0.00 0.00 0.00 39 1011.2
20260503202648 16 218 4.8 22.5 0.00 0.00 0.00 37 1011.2
20260503201647 15 323 3.2 11.3 0.00 0.00 0.00 40 1011.1
20260503200647 15 275 6.4 19.3 0.00 0.00 0.00 39 1011.3
20260503195647 15 295 6.4 17.7 0.00 0.00 0.00 40 1011.4
20260503194648 15 178 1.6 11.3 0.00 0.00 0.00 44 1011.5
20260503193647 15 162 4.8 20.9 0.00 0.00 0.00 40 1011.4
20260503192648 15 219 6.4 19.3 0.00 0.00 0.00 38 1011.4
20260503191648 15 169 4.8 16.1 0.00 0.00 0.00 38 1011.6
20260503190647 15 271 6.4 22.5 0.00 0.00 0.00 45 1011.5
20260503185642 15 255 8.0 17.7 0.00 0.00 0.00 43 1011.6
20260503183641 13 161 6.4 19.3 0.00 0.00 0.00 44 1012.0
20260503182642 14 224 4.8 16.1 0.00 0.00 0.00 43 1012.0
20260503181640 14 255 4.8 17.7 0.00 0.00 0.00 42 1012.2
20260503180640 13 214 6.4 17.7 0.00 0.00 0.00 45 1012.3
20260503174641 13 172 3.2 16.1 0.00 0.00 0.00 46 1012.2
20260503173641 13 268 3.2 14.5 0.00 0.00 0.00 45 1012.4
20260503171637 12 279 6.4 22.5 0.00 0.00 0.00 52 1012.8
20260503150636 10 311 0.0 6.4 0.00 0.00 0.00 53 1013.1
20260503130630 10 95 1.6 9.7 0.00 0.00 0.00 62 1012.9
20260503110623 7 295 0.0 9.7 0.00 0.00 0.00 67 1012.3
20260503081615 7 37 0.0 0.0 0.00 0.00 0.00 66 1010.7
20260503080613 7 335 0.0 1.6 0.00 0.00 0.00 66 1010.8
20260503072615 8 123 0.0 3.2 0.00 0.00 0.00 61 1010.7
20260503071613 8 334 0.0 3.2 0.00 0.00 0.00 61 1010.8
20260503070617 8 188 0.0 3.2 0.00 0.00 0.00 62 1010.7
20260503054605 8 218 0.0 0.0 0.00 0.00 0.00 62 1011.3
20260503053604 8 205 0.0 0.0 0.00 0.00 0.00 62 1011.3
20260503052605 8 310 0.0 0.0 0.00 0.00 0.00 63 1011.3
20260503051605 8 310 0.0 0.0 0.00 0.00 0.00 62 1011.3
20260503050607 8 195 0.0 0.0 0.00 0.00 0.00 61 1011.4
20260503045603 8 85 0.0 0.0 0.00 0.00 0.00 61 1011.4
20260503044604 9 85 0.0 0.0 0.00 0.00 0.00 60 1011.6
20260503043603 9 183 0.0 0.0 0.00 0.00 0.00 60 1011.5
20260503041603 9 235 0.0 1.6 0.00 0.00 0.00 60 1011.5
20260503040602 9 244 0.0 1.6 0.00 0.00 0.00 60 1011.6
20260503035600 9 247 0.0 1.6 0.00 0.00 0.00 60 1011.5
20260503034600 9 234 0.0 1.6 0.00 0.00 0.00 60 1011.5
20260503031556 9 250 0.0 0.0 0.00 0.00 0.00 61 1011.3
20260503025553 10 250 0.0 0.0 0.00 0.00 0.00 59 1011.5
20260503024554 10 212 0.0 0.0 0.00 0.00 0.00 58 1011.4
20260503023553 10 265 0.0 1.6 0.00 0.00 0.00 58 1011.4
20260503022551 10 229 0.0 1.6 0.00 0.00 0.00 58 1011.4
20260503021552 10 274 0.0 3.2 0.00 0.00 0.00 57 1011.5
20260503020549 10 270 0.0 1.6 0.00 0.00 0.00 58 1011.4
20260503015549 10 217 0.0 0.0 0.00 0.00 0.00 59 1011.4
20260503014547 10 217 0.0 1.6 0.00 0.00 0.00 61 1011.5
20260503013545 10 217 0.0 0.0 0.00 0.00 0.00 59 1011.5
20260503012545 10 217 0.0 0.0 0.00 0.00 0.00 57 1011.6
20260503011545 11 217 0.0 0.0 0.00 0.00 0.00 56 1011.6
20260503010546 11 217 0.0 0.0 0.00 0.00 0.00 55 1011.5
20260503005546 11 217 0.0 0.0 0.00 0.00 0.00 55 1011.3
20260503004546 11 217 0.0 0.0 0.00 0.00 0.00 55 1011.0
20260503003546 11 217 0.0 0.0 0.00 0.00 0.00 54 1011.1
20260503002546 12 217 0.0 1.6 0.00 0.00 0.00 54 1010.8
20260503001547 12 233 0.0 1.6 0.00 0.00 0.00 53 1010.7
20260502235542 12 224 0.0 0.0 0.00 0.00 0.00 53 1010.8
20260502234535 13 221 0.0 0.0 0.00 0.00 0.00 50 1010.7
20260502233534 13 264 0.0 0.0 0.00 0.00 0.00 50 1010.7
20260502232530 13 248 0.0 3.2 0.00 0.00 0.00 48 1010.7
20260502231529 14 214 0.0 8.0 0.00 0.00 0.00 45 1010.9
20260502230530 14 330 0.0 3.2 0.00 0.00 0.00 46 1010.7
20260502225530 15 356 1.6 9.7 0.00 0.00 0.00 45 1010.8
20260502224528 16 10 0.0 4.8 0.00 0.00 0.00 43 1010.6
20260502222530 15 233 0.0 8.0 0.00 0.00 0.00 49 1010.4
20260502221525 15 238 0.0 1.6 0.00 0.00 0.00 48 1010.6